Total_Precipitation_Accumulation
0.21 0.22 0.31 0.46 0.46 0.31 0.12 0.03 0.02 0.03 0.04 0.06 0.08 0.09 0.08 0.09 0.14 0.31 0.32 0.23 0.23 0.27 0.40 0.71 1.10 1.28 1.27 1.19 1.09 0.98 0.92 0.85 0.90 0.97 1.01 1.01 0.98 0.95 0.92 0.98 1.01 1.10 1.25 1.18 1.16 1.07 1.04 0.96 0.80
0.23 0.34 0.55 0.65 0.50 0.31 0.12 0.04 0.03 0.03 0.05 0.06 0.08 0.09 0.09 0.10 0.11 0.20 0.31 0.31 0.28 0.32 0.45 0.70 1.07 1.33 1.37 1.31 1.21 1.12 1.12 1.06 1.03 1.10 1.15 1.14 1.17 1.14 1.09 1.13 1.12 1.09 1.16 1.07 0.99 0.84 0.77 0.69 0.62
0.39 0.55 0.76 0.72 0.52 0.29 0.12 0.04 0.04 0.05 0.06 0.08 0.10 0.11 0.13 0.16 0.16 0.22 0.34 0.41 0.44 0.47 0.60 0.87 1.19 1.41 1.52 1.43 1.39 1.33 1.30 1.28 1.24 1.21 1.25 1.29 1.28 1.28 1.20 1.14 1.12 1.06 1.08 0.96 0.85 0.71 0.58 0.53 0.49
0.62 0.81 0.86 0.71 0.50 0.25 0.11 0.07 0.07 0.08 0.08 0.09 0.13 0.19 0.20 0.19 0.23 0.29 0.42 0.51 0.56 0.63 0.77 1.07 1.36 1.54 1.62 1.53 1.48 1.47 1.47 1.50 1.47 1.36 1.32 1.35 1.37 1.28 1.16 1.09 1.03 0.92 0.91 0.88 0.77 0.65 0.55 0.48 0.48
0.92 1.05 0.87 0.67 0.43 0.22 0.10 0.09 0.10 0.11 0.12 0.13 0.16 0.23 0.28 0.26 0.29 0.42 0.60 0.69 0.74 0.86 1.00 1.26 1.61 1.84 1.86 1.75 1.68 1.64 1.62 1.63 1.66 1.57 1.46 1.49 1.53 1.45 1.21 1.07 0.96 0.83 0.80 0.77 0.72 0.61 0.55 0.50 0.47
1.20 1.19 0.92 0.58 0.35 0.22 0.11 0.10 0.12 0.14 0.15 0.17 0.23 0.30 0.41 0.40 0.43 0.55 0.79 0.92 0.96 1.09 1.25 1.51 1.87 2.03 2.12 2.02 1.92 1.88 1.84 1.76 1.74 1.75 1.70 1.64 1.66 1.59 1.35 1.09 0.97 0.90 0.86 0.79 0.75 0.68 0.59 0.52 0.45
1.20 1.20 0.87 0.45 0.30 0.25 0.14 0.12 0.17 0.18 0.17 0.21 0.26 0.37 0.52 0.59 0.70 0.79 0.99 1.21 1.31 1.43 1.62 1.78 2.02 2.18 2.39 2.24 2.04 2.04 2.02 1.90 1.85 1.85 1.82 1.71 1.67 1.57 1.38 1.14 1.04 1.01 0.97 0.89 0.81 0.75 0.67 0.59 0.49
1.21 1.30 0.86 0.43 0.28 0.28 0.19 0.17 0.20 0.22 0.23 0.23 0.34 0.46 0.57 0.70 0.89 1.10 1.33 1.47 1.68 1.81 2.00 2.10 2.24 2.35 2.55 2.51 2.24 2.06 1.96 1.90 1.92 1.84 1.65 1.44 1.45 1.48 1.39 1.10 1.04 1.04 1.00 0.99 0.91 0.78 0.71 0.62 0.50
1.25 1.33 0.85 0.46 0.34 0.30 0.26 0.28 0.26 0.26 0.34 0.38 0.45 0.52 0.64 0.85 1.16 1.44 1.72 1.86 2.06 2.26 2.36 2.43 2.44 2.45 2.57 2.66 2.46 2.36 2.18 2.05 1.97 1.86 1.59 1.47 1.55 1.48 1.35 1.09 0.94 1.02 1.00 1.06 1.10 0.97 0.81 0.65 0.55
1.30 1.11 0.63 0.41 0.37 0.37 0.32 0.34 0.36 0.42 0.48 0.54 0.63 0.72 0.88 1.19 1.57 1.77 1.90 2.00 2.17 2.37 2.48 2.63 2.60 2.60 2.69 2.72 2.66 2.65 2.45 2.26 2.09 1.86 1.72 1.66 1.59 1.57 1.40 1.29 1.06 1.08 1.09 1.09 1.14 1.03 0.91 0.71 0.54
0.95 0.79 0.54 0.43 0.40 0.41 0.42 0.40 0.42 0.51 0.56 0.53 0.62 0.83 1.15 1.54 1.93 1.99 2.14 2.27 2.32 2.51 2.62 2.76 2.75 2.82 2.85 2.83 2.71 2.64 2.50 2.47 2.33 2.11 1.87 1.79 1.74 1.68 1.65 1.46 1.29 1.24 1.16 1.17 1.06 0.96 0.86 0.72 0.60
0.68 0.54 0.51 0.50 0.45 0.47 0.49 0.49 0.53 0.53 0.53 0.53 0.61 0.81 1.19 1.63 1.94 2.04 2.29 2.46 2.60 2.74 2.89 2.93 2.93 3.03 3.06 2.99 2.80 2.59 2.36 2.32 2.32 2.18 2.12 1.98 1.85 1.73 1.61 1.44 1.28 1.23 1.13 1.10 1.01 0.91 0.81 0.70 0.64
0.55 0.45 0.45 0.53 0.55 0.53 0.51 0.51 0.59 0.52 0.51 0.58 0.68 0.93 1.24 1.65 2.02 2.21 2.48 2.67 2.82 3.00 3.09 3.19 3.16 3.12 3.11 3.18 3.07 2.72 2.39 2.14 2.16 2.19 2.21 2.12 1.88 1.70 1.63 1.48 1.42 1.30 1.18 1.14 1.08 0.97 0.88 0.80 0.75
0.46 0.43 0.50 0.59 0.66 0.57 0.56 0.56 0.60 0.56 0.54 0.67 0.80 0.99 1.23 1.63 2.14 2.39 2.70 2.96 2.95 3.20 3.36 3.52 3.44 3.33 3.14 3.07 3.13 2.93 2.62 2.32 2.21 2.15 2.14 2.27 2.12 1.89 1.82 1.62 1.57 1.49 1.39 1.31 1.24 1.14 1.11 1.01 0.93
0.50 0.60 0.65 0.68 0.72 0.61 0.65 0.75 0.65 0.58 0.54 0.66 0.80 1.01 1.23 1.57 2.04 2.38 2.65 2.87 3.11 3.31 3.56 3.70 3.74 3.61 3.32 3.12 3.17 3.06 2.86 2.65 2.42 2.09 2.05 2.19 2.28 2.21 2.10 1.83 1.69 1.62 1.61 1.62 1.55 1.42 1.33 1.24 1.11
0.81 0.98 0.90 0.63 0.69 0.68 0.80 0.86 0.59 0.58 0.61 0.63 0.73 0.94 1.16 1.38 1.77 2.13 2.52 2.77 3.04 3.40 3.61 3.74 3.81 3.82 3.59 3.29 3.23 3.23 3.03 2.86 2.68 2.39 2.18 2.16 2.27 2.37 2.38 2.05 1.79 1.67 1.69 1.68 1.63 1.55 1.43 1.25 1.18
1.16 0.96 0.73 0.56 0.57 0.73 0.75 0.79 0.64 0.61 0.64 0.61 0.65 0.82 1.10 1.30 1.53 1.81 2.22 2.61 2.84 3.23 3.50 3.81 3.84 3.80 3.74 3.59 3.50 3.45 3.37 3.17 2.97 2.63 2.35 2.32 2.37 2.48 2.58 2.25 1.95 1.85 1.85 1.78 1.74 1.66 1.60 1.40 1.24
0.95 0.62 0.51 0.53 0.56 0.68 0.65 0.59 0.64 0.66 0.66 0.62 0.66 0.76 0.98 1.24 1.33 1.56 1.91 2.42 2.67 3.04 3.38 3.61 3.94 3.96 4.04 4.05 3.90 3.78 3.72 3.55 3.28 2.91 2.57 2.43 2.40 2.50 2.72 2.53 2.25 2.13 2.05 1.95 1.82 1.72 1.73 1.68 1.56
0.75 0.64 0.50 0.40 0.45 0.64 0.63 0.54 0.61 0.61 0.66 0.67 0.70 0.76 0.84 1.04 1.21 1.46 1.80 2.21 2.55 2.80 3.16 3.33 3.59 3.88 4.02 4.00 3.77 3.58 3.47 3.59 3.55 3.21 2.90 2.81 2.63 2.51 2.65 2.67 2.55 2.35 2.20 2.06 1.95 1.87 1.83 1.85 1.88
0.92 0.86 0.61 0.45 0.40 0.61 0.64 0.58 0.59 0.62 0.67 0.69 0.73 0.72 0.77 0.88 1.06 1.33 1.73 1.97 2.22 2.51 2.76 3.09 3.22 3.57 3.70 3.61 3.61 3.52 3.51 3.57 3.63 3.53 3.28 3.13 2.98 2.75 2.63 2.63 2.63 2.54 2.39 2.26 2.20 2.13 2.08 1.98 1.95
0.99 0.84 0.70 0.65 0.58 0.68 0.77 0.75 0.62 0.62 0.60 0.57 0.60 0.61 0.70 0.79 0.90 1.12 1.49 1.80 1.95 2.23 2.56 2.72 2.89 3.17 3.50 3.62 3.84 3.97 3.97 3.78 3.62 3.52 3.49 3.36 3.30 3.12 2.81 2.68 2.69 2.66 2.55 2.40 2.35 2.31 2.32 2.34 2.25
1.04 0.63 0.69 0.78 1.02 1.02 0.83 1.04 0.72 0.61 0.56 0.54 0.58 0.58 0.67 0.76 0.85 1.00 1.14 1.43 1.67 1.86 2.31 2.66 2.88 3.08 3.30 3.70 3.82 3.76 3.60 3.36 3.14 3.21 3.31 3.39 3.38 3.35 3.11 2.94 2.90 2.79 2.65 2.55 2.57 2.53 2.52 2.56 2.56
0.93 0.64 0.75 0.91 1.13 1.15 0.80 0.93 0.74 0.51 0.54 0.57 0.60 0.63 0.75 0.88 0.93 0.98 1.05 1.21 1.43 1.62 2.03 2.45 2.72 3.07 3.34 3.50 3.64 3.76 3.54 3.26 3.18 3.18 3.20 3.17 3.18 3.25 3.25 3.12 3.15 3.03 2.87 2.74 2.73 2.74 2.74 2.71 2.67
1.02 1.07 1.17 1.28 1.72 1.75 0.76 0.75 0.75 0.64 0.67 0.63 0.61 0.66 0.80 0.92 0.97 0.95 1.03 1.17 1.37 1.52 1.75 2.17 2.46 2.65 2.98 3.32 3.41 3.50 3.49 3.42 3.32 3.14 3.07 3.08 3.08 3.11 3.18 3.21 3.17 3.12 3.08 2.96 2.86 2.81 2.79 2.75 2.67
1.51 2.19 2.91 2.89 2.56 1.41 0.52 0.61 0.74 0.68 0.70 0.73 0.75 0.77 0.83 0.88 0.92 0.93 1.01 1.15 1.37 1.54 1.69 1.86 2.08 2.23 2.47 2.79 3.01 3.10 3.25 3.33 3.19 3.04 2.88 2.85 2.87 2.86 2.91 3.00 3.07 3.07 3.03 3.06 3.02 2.96 2.84 2.77 2.72
1.55 1.89 2.28 1.93 1.23 0.71 0.49 0.63 0.74 0.68 0.69 0.71 0.75 0.76 0.76 0.83 0.89 0.92 0.94 1.03 1.20 1.41 1.61 1.69 1.81 1.94 2.13 2.33 2.52 2.74 2.94 3.13 3.14 3.02 2.81 2.71 2.64 2.62 2.75 2.80 2.77 2.81 2.87 2.94 3.00 2.95 2.80 2.70 2.61
1.42 1.46 1.33 1.65 1.05 0.71 0.60 0.57 0.55 0.49 0.51 0.60 0.66 0.67 0.74 0.83 0.87 0.88 0.89 0.93 1.07 1.22 1.43 1.54 1.66 1.78 1.87 2.02 2.21 2.45 2.61 2.73 2.80 2.88 2.80 2.71 2.62 2.56 2.52 2.53 2.52 2.48 2.53 2.66 2.80 2.80 2.70 2.61 2.51
1.17 1.22 1.53 2.16 1.74 1.04 0.63 0.51 0.66 0.62 0.60 0.63 0.67 0.74 0.83 0.87 0.84 0.83 0.87 0.94 1.05 1.11 1.25 1.43 1.53 1.62 1.67 1.78 1.89 2.03 2.25 2.47 2.58 2.68 2.64 2.56 2.55 2.56 2.45 2.31 2.28 2.25 2.25 2.33 2.46 2.48 2.43 2.44 2.36
1.12 1.44 1.72 1.78 1.47 1.26 0.94 0.81 0.82 0.76 0.71 0.72 0.74 0.79 0.87 0.91 0.89 0.90 0.93 1.02 1.12 1.11 1.18 1.36 1.47 1.60 1.65 1.68 1.74 1.79 1.87 2.03 2.23 2.43 2.53 2.43 2.46 2.49 2.44 2.27 2.19 2.15 2.08 2.09 2.14 2.13 2.16 2.19 2.19
0.97 1.12 1.42 1.91 1.47 1.06 1.03 1.00 0.80 0.75 0.72 0.71 0.74 0.77 0.82 0.86 0.88 0.94 1.02 1.02 1.05 1.16 1.24 1.33 1.41 1.55 1.66 1.71 1.71 1.76 1.79 1.82 1.95 2.06 2.28 2.34 2.41 2.41 2.44 2.35 2.21 2.11 2.01 1.97 1.99 1.95 1.92 1.92 1.93